DJ0MDC Weather Reports


time (UTC)temp
C
wind
direction
speed
KPH
gust
KPH
rain 1hr
cm
rain 24hr
cm
rain mn
cm
humidity
%
barometer
mb
20260507033425 8 253 0.0 0.0 0.00 0.00 0.00 99 1009.0
20260507032925 8 1 0.0 0.0 0.00 0.00 0.00 99 1009.0
20260507032426 8 279 1.6 1.6 0.00 0.00 0.00 99 1009.0
20260507031925 8 175 1.6 1.6 0.00 0.00 0.00 99 1009.0
20260507031428 8 96 1.6 3.2 0.00 0.00 0.00 99 1009.0
20260507030928 8 318 0.0 1.6 0.00 0.00 0.00 99 1009.0
20260507030428 8 118 0.0 0.0 0.00 0.00 0.00 99 1009.0
20260507025926 8 125 1.6 1.6 0.00 0.00 0.00 99 1009.0
20260507025427 8 329 1.6 1.6 0.00 0.00 0.00 99 1009.0
20260507024925 8 257 1.6 1.6 0.00 0.00 0.00 99 1009.0
20260507024428 8 184 1.6 3.2 0.00 0.00 0.00 99 1009.0
20260507023928 8 77 0.0 1.6 0.00 0.00 0.00 99 1009.0
20260507023427 8 115 0.0 1.6 0.00 0.00 0.00 99 1009.0
20260507022928 8 86 3.2 3.2 0.00 0.00 0.00 99 1009.0
20260507022428 8 280 0.0 0.0 0.00 0.00 0.00 99 1009.0
20260507021928 8 28 0.0 0.0 0.00 0.00 0.00 99 1009.0
20260507021428 8 82 0.0 0.0 0.00 0.00 0.00 99 1009.0
20260507020926 8 57 0.0 0.0 0.00 0.00 0.00 98 1009.0
20260507020427 8 245 1.6 3.2 0.00 0.00 0.00 98 1009.0
20260507015925 8 53 0.0 0.0 0.00 0.00 0.00 98 1009.0
20260507015426 8 332 1.6 1.6 0.00 0.00 0.00 98 1009.0
20260507014925 8 346 0.0 1.6 0.00 0.00 0.00 98 1009.0
20260507014427 8 151 1.6 1.6 0.00 0.00 0.00 98 1009.0
20260507013926 8 305 1.6 3.2 0.00 0.00 0.00 98 1009.0
20260507013428 8 104 0.0 1.6 0.00 0.00 0.00 98 1009.0
20260507012930 8 254 1.6 1.6 0.00 0.00 0.00 98 1009.0
20260507012427 8 94 0.0 0.0 0.00 0.00 0.00 98 1009.0
20260507011927 8 85 0.0 0.0 0.00 0.00 0.00 98 1009.0
20260507011428 8 72 0.0 0.0 0.00 0.00 0.00 98 1009.0
20260507010926 8 231 0.0 0.0 0.00 0.00 0.00 98 1009.0
20260507010425 8 23 0.0 0.0 0.00 0.00 0.00 97 1009.0
20260507005928 8 152 3.2 3.2 0.00 0.00 0.00 97 1009.0
20260507005427 8 65 0.0 0.0 0.00 0.00 0.00 97 1009.0
20260507004930 8 94 0.0 0.0 0.00 0.00 0.00 97 1009.0
20260507004428 8 278 0.0 1.6 0.00 0.00 0.00 97 1009.0
20260507003925 8 57 0.0 1.6 0.00 0.00 0.00 97 1009.0
20260507003427 9 120 0.0 1.6 0.00 0.00 0.00 98 1009.0
20260507002927 9 329 0.0 0.0 0.00 0.00 0.00 98 1009.0
20260507002428 9 347 0.0 0.0 0.00 0.00 0.00 99 1009.0
20260507001458 9 242 0.0 1.6 0.00 0.00 0.00 98 1009.0
20260507000925 9 313 0.0 0.0 0.00 0.00 0.00 99 1009.0
20260507000427 9 349 0.0 0.0 0.00 0.00 0.00 98 1009.0
20260506235928 9 346 0.0 0.0 0.00 0.00 0.00 99 1009.0
20260506235426 9 235 0.0 1.6 0.00 0.00 0.00 99 1009.0
20260506234925 9 192 0.0 1.6 0.00 0.00 0.00 99 1009.0
20260506234426 9 239 0.0 0.0 0.00 0.00 0.00 99 1009.0
20260506233925 9 128 4.8 4.8 0.00 0.00 0.00 99 1009.0
20260506233426 10 347 0.0 0.0 0.00 0.00 0.00 99 1009.0
20260506232927 10 326 0.0 0.0 0.00 0.00 0.00 99 1009.0
20260506232426 10 218 0.0 1.6 0.00 0.00 0.00 99 1009.0
20260506231927 10 74 0.0 0.0 0.00 0.00 0.00 99 1009.0
20260506231427 10 55 0.0 1.6 0.00 0.00 0.00 99 1009.0
20260506230927 10 315 0.0 1.6 0.00 0.00 0.00 99 1009.0
20260506230427 10 22 0.0 0.0 0.00 0.00 0.00 99 1009.0
20260506225928 10 76 0.0 0.0 0.00 0.00 0.00 99 1009.0
20260506225427 10 176 1.6 1.6 0.00 0.00 0.00 99 1009.0
20260506224925 10 250 1.6 1.6 0.00 0.00 0.00 99 1008.0
20260506224427 10 291 1.6 1.6 0.00 0.00 0.00 99 1009.0
20260506223928 10 210 0.0 0.0 0.00 0.00 0.00 99 1008.0
20260506223428 10 269 0.0 0.0 0.00 0.00 0.00 99 1009.0
20260506222925 10 103 0.0 0.0 0.00 0.00 0.00 99 1008.0
20260506222426 10 274 0.0 1.6 0.00 0.00 0.00 99 1008.0
20260506221927 10 318 0.0 0.0 0.00 0.00 0.00 99 1008.0
20260506221426 10 343 0.0 1.6 0.00 0.00 0.00 99 1008.0
20260506220928 10 249 1.6 1.6 0.00 0.00 0.00 99 1008.0
20260506220428 10 249 1.6 1.6 0.00 0.00 0.00 99 1008.0
20260506215925 10 337 0.0 1.6 0.00 0.00 0.53 99 1008.0
20260506215426 10 0 1.6 1.6 0.00 0.00 0.53 99 1008.0
20260506214925 10 118 1.6 1.6 0.00 0.00 0.53 99 1008.0
20260506214425 10 257 1.6 3.2 0.00 0.00 0.53 99 1008.0
20260506213925 10 137 1.6 1.6 0.00 0.00 0.53 99 1008.0
20260506213428 10 308 1.6 1.6 0.00 0.00 0.53 99 1008.0
20260506212927 10 137 1.6 1.6 0.00 0.00 0.53 99 1008.0
20260506211957 10 12 1.6 4.8 0.00 0.00 0.53 99 1008.0
20260506211428 10 7 0.0 0.0 0.00 0.00 0.53 99 1008.0
20260506210925 10 40 0.0 0.0 0.00 0.00 0.53 99 1008.0
20260506210427 10 66 0.0 0.0 0.00 0.00 0.53 99 1008.0
20260506205926 10 106 3.2 3.2 0.00 0.00 0.53 99 1008.0
20260506205425 10 280 0.0 0.0 0.00 0.00 0.53 99 1008.0
20260506204927 10 221 0.0 1.6 0.00 0.00 0.53 99 1008.0
20260506204427 10 38 1.6 3.2 0.00 0.00 0.53 99 1008.0
20260506203927 10 290 1.6 1.6 0.00 0.00 0.53 99 1008.0
20260506203427 11 278 0.0 1.6 0.00 0.00 0.53 99 1008.0
20260506202925 11 312 1.6 3.2 0.00 0.00 0.53 99 1008.0
20260506202427 11 83 0.0 0.0 0.00 0.00 0.53 99 1008.0
20260506201928 11 43 0.0 0.0 0.00 0.00 0.53 99 1008.0
20260506201428 11 347 0.0 0.0 0.00 0.00 0.53 99 1007.0
20260506200928 10 14 0.0 0.0 0.00 0.00 0.53 99 1008.0
20260506200425 10 22 0.0 0.0 0.00 0.00 0.53 99 1008.0
20260506195927 10 313 0.0 1.6 0.00 0.00 0.53 99 1008.0
20260506195427 10 25 0.0 0.0 0.00 0.00 0.53 99 1008.0
20260506194929 10 24 0.0 0.0 0.00 0.00 0.53 99 1007.0
20260506194427 10 289 0.0 0.0 0.00 0.00 0.53 99 1007.0
20260506193929 11 17 0.0 0.0 0.00 0.00 0.53 99 1007.0
20260506193427 11 3 0.0 0.0 0.00 0.00 0.53 99 1007.0
20260506192927 11 41 0.0 0.0 0.00 0.00 0.53 99 1007.0
20260506192429 11 14 0.0 0.0 0.00 0.00 0.53 99 1007.0
20260506191928 11 217 0.0 0.0 0.00 0.00 0.53 99 1007.0
20260506191427 11 357 0.0 0.0 0.00 0.00 0.53 99 1007.0
20260506190930 11 327 0.0 1.6 0.00 0.00 0.53 99 1007.0
20260506190428 11 78 0.0 0.0 0.00 0.00 0.53 99 1007.0
20260506185927 11 82 0.0 0.0 0.00 0.00 0.53 99 1007.0
20260506185428 11 106 0.0 0.0 0.00 0.00 0.53 99 1007.0
20260506184928 11 0 1.6 3.2 0.00 0.00 0.53 99 1007.0
20260506184427 11 52 0.0 0.0 0.00 0.00 0.53 99 1007.0
20260506183927 11 210 4.8 4.8 0.00 0.00 0.53 99 1006.0
20260506183429 11 296 1.6 3.2 0.00 0.00 0.53 99 1006.0
20260506182925 11 99 0.0 0.0 0.00 0.00 0.53 99 1006.0
20260506182427 11 210 0.0 1.6 0.00 0.00 0.53 99 1006.0
20260506181926 11 245 3.2 4.8 0.18 0.00 0.53 99 1006.0
20260506181427 11 311 0.0 1.6 0.18 0.00 0.53 99 1006.0
20260506180927 11 334 3.2 3.2 0.00 0.00 0.51 99 1006.0
20260506180426 11 274 3.2 4.8 0.00 0.00 0.51 99 1006.0
20260506175929 11 40 0.0 0.0 0.30 0.00 0.51 99 1006.0
20260506175428 11 277 1.6 3.2 0.89 0.00 0.51 99 1006.0
20260506174925 11 320 3.2 4.8 1.07 0.00 0.46 99 1006.0
20260506174426 11 268 4.8 8.0 0.71 0.00 0.33 99 1006.0
20260506173928 11 259 1.6 1.6 0.61 0.00 0.25 99 1006.0
20260506173428 11 227 1.6 1.6 0.48 0.00 0.18 98 1006.0
20260506172925 11 318 0.0 1.6 0.36 0.00 0.15 98 1006.0
20260506172428 11 280 6.4 11.3 0.18 0.00 0.13 97 1006.0
20260506171928 12 260 6.4 8.0 0.13 0.00 0.10 97 1006.0
20260506171426 12 265 4.8 4.8 0.30 0.00 0.10 97 1005.0
20260506170928 12 301 1.6 3.2 0.48 0.00 0.08 97 1005.0
20260506170428 12 252 8.0 11.3 0.30 0.00 0.05 96 1005.0
20260506165925 12 324 9.7 14.5 0.00 0.00 0.00 94 1005.0
20260506165427 13 227 8.0 11.3 0.00 0.00 0.00 93 1005.0
20260506164927 13 288 8.0 12.9 0.00 0.00 0.00 92 1005.0
20260506164426 13 234 6.4 9.7 0.00 0.00 0.00 92 1005.0
20260506163926 13 242 6.4 8.0 0.00 0.00 0.00 90 1005.0
20260506163428 13 268 6.4 9.7 0.00 0.00 0.00 90 1005.0
20260506162927 13 309 4.8 4.8 0.00 0.00 0.00 88 1005.0
20260506162427 13 240 3.2 3.2 0.00 0.00 0.00 87 1005.0
20260506161928 13 254 6.4 9.7 0.00 0.00 0.00 87 1005.0
20260506161428 13 288 9.7 14.5 0.00 0.00 0.00 88 1005.0
20260506160928 13 311 8.0 11.3 0.00 0.00 0.00 88 1005.0
20260506160427 14 279 4.8 8.0 0.00 0.00 0.00 89 1005.0
20260506155925 14 260 1.6 3.2 0.00 0.00 0.00 87 1005.0
20260506155427 14 184 3.2 4.8 0.00 0.00 0.00 83 1004.0
20260506154928 15 265 6.4 9.7 0.00 0.00 0.00 79 1004.0
20260506154425 15 261 3.2 3.2 0.00 0.00 0.00 76 1004.0
20260506153927 15 260 4.8 4.8 0.00 0.00 0.00 75 1004.0
20260506153428 16 99 3.2 3.2 0.00 0.00 0.00 74 1004.0
20260506152926 16 69 0.0 0.0 0.00 0.00 0.00 74 1004.0
20260506152426 16 142 1.6 1.6 0.00 0.00 0.00 74 1004.0
20260506151927 16 288 3.2 3.2 0.00 0.00 0.00 73 1004.0
20260506151428 16 294 1.6 3.2 0.00 0.00 0.00 69 1004.0
20260506150926 16 325 0.0 1.6 0.00 0.00 0.00 68 1004.0
20260506150432 16 38 0.0 0.0 0.00 0.00 0.00 69 1004.0
20260506145928 16 262 4.8 4.8 0.00 0.00 0.00 70 1004.0
20260506145428 16 225 1.6 3.2 0.00 0.00 0.00 72 1004.0
20260506144928 16 248 4.8 4.8 0.00 0.00 0.00 72 1004.0
20260506144426 16 217 3.2 3.2 0.00 0.00 0.00 73 1004.0
20260506143928 16 269 4.8 8.0 0.00 0.00 0.00 73 1004.0
20260506143427 17 259 9.7 11.3 0.00 0.00 0.00 74 1004.0
20260506142927 18 256 4.8 4.8 0.00 0.00 0.00 67 1004.0
20260506142426 19 221 1.6 3.2 0.00 0.00 0.00 64 1004.0
20260506141928 19 38 0.0 1.6 0.00 0.00 0.00 55 1004.0
20260506141426 19 190 0.0 0.0 0.00 0.00 0.00 57 1004.0
20260506140930 18 282 0.0 1.6 0.00 0.00 0.00 59 1004.0
20260506140431 18 353 1.6 1.6 0.00 0.00 0.00 59 1004.0
20260506135928 19 353 0.0 0.0 0.00 0.00 0.00 59 1004.0
20260506135428 18 3 0.0 1.6 0.00 0.00 0.00 58 1004.0
20260506134927 18 320 0.0 1.6 0.00 0.00 0.00 59 1004.0
20260506134428 18 333 0.0 0.0 0.00 0.00 0.00 62 1004.0
20260506133926 18 32 0.0 0.0 0.00 0.00 0.00 62 1004.0
20260506133428 18 284 1.6 1.6 0.00 0.00 0.00 60 1004.0
20260506132927 18 299 0.0 1.6 0.00 0.00 0.00 58 1004.0
20260506132426 18 324 0.0 0.0 0.00 0.00 0.00 59 1004.0
20260506131926 18 293 1.6 3.2 0.00 0.00 0.00 58 1004.0
20260506131427 18 252 1.6 1.6 0.00 0.00 0.00 60 1004.0
20260506130926 18 34 0.0 0.0 0.00 0.00 0.00 61 1004.0
20260506130428 18 62 0.0 0.0 0.00 0.00 0.00 62 1004.0
20260506125927 18 28 1.6 1.6 0.00 0.00 0.00 60 1004.0
20260506125425 18 19 1.6 1.6 0.00 0.00 0.00 60 1004.0
20260506124927 18 39 1.6 1.6 0.00 0.00 0.00 60 1004.0
20260506124428 18 30 0.0 0.0 0.00 0.00 0.00 62 1004.0
20260506123925 18 11 3.2 3.2 0.00 0.00 0.00 60 1004.0
20260506123425 18 45 0.0 1.6 0.00 0.00 0.00 61 1004.0
20260506122928 19 33 1.6 3.2 0.00 0.00 0.00 59 1004.0
20260506122428 18 22 1.6 3.2 0.00 0.00 0.00 60 1004.0
20260506121925 18 33 4.8 4.8 0.00 0.00 0.00 61 1004.0
20260506121428 19 359 1.6 3.2 0.00 0.00 0.00 60 1004.0
20260506120927 20 26 1.6 1.6 0.00 0.00 0.00 58 1004.0
20260506120426 21 48 1.6 1.6 0.00 0.00 0.00 59 1004.0
20260506115928 20 82 1.6 1.6 0.00 0.00 0.00 60 1004.0
20260506115427 19 16 0.0 0.0 0.00 0.00 0.00 62 1005.0
20260506114926 18 30 0.0 1.6 0.00 0.00 0.00 63 1005.0
20260506114426 18 25 1.6 1.6 0.00 0.00 0.00 63 1005.0
20260506113927 19 54 3.2 3.2 0.00 0.00 0.00 63 1004.0
20260506113429 20 228 1.6 3.2 0.00 0.00 0.00 61 1005.0
20260506112929 20 89 0.0 1.6 0.00 0.00 0.00 65 1005.0
20260506112429 19 269 1.6 1.6 0.00 0.00 0.00 63 1005.0
20260506111928 19 16 1.6 1.6 0.00 0.00 0.00 62 1005.0
20260506111427 19 7 0.0 1.6 0.00 0.00 0.00 63 1005.0
20260506110927 18 261 1.6 1.6 0.00 0.00 0.00 64 1005.0
20260506110428 18 49 0.0 1.6 0.00 0.00 0.00 68 1005.0
20260506105929 18 251 1.6 1.6 0.00 0.00 0.00 66 1005.0
20260506104940 18 283 1.6 1.6 0.00 0.00 0.00 67 1005.0
20260506104429 18 324 1.6 1.6 0.00 0.00 0.00 66 1005.0
20260506103929 18 29 0.0 0.0 0.00 0.00 0.00 66 1005.0
20260506103429 18 238 1.6 1.6 0.00 0.00 0.00 68 1005.0
20260506102930 18 37 1.6 1.6 0.00 0.00 0.00 68 1005.0
20260506102428 17 326 1.6 1.6 0.00 0.00 0.00 69 1005.0
20260506101927 17 351 0.0 0.0 0.00 0.00 0.00 70 1005.0
20260506101429 17 25 3.2 3.2 0.00 0.00 0.00 71 1006.0
20260506100927 17 206 1.6 1.6 0.00 0.00 0.00 74 1005.0
20260506100428 16 341 0.0 0.0 0.00 0.00 0.00 72 1005.0
20260506095927 16 36 0.0 0.0 0.00 0.00 0.00 75 1006.0
20260506095427 17 242 4.8 4.8 0.00 0.00 0.00 70 1006.0
20260506094928 17 81 3.2 3.2 0.00 0.00 0.00 72 1005.0
20260506094428 16 286 1.6 1.6 0.00 0.00 0.00 73 1005.0
20260506093925 16 318 0.0 0.0 0.00 0.00 0.00 72 1006.0
20260506093428 16 26 1.6 1.6 0.00 0.00 0.00 73 1006.0
20260506092926 16 293 0.0 1.6 0.00 0.00 0.00 75 1006.0
20260506092426 16 293 0.0 0.0 0.00 0.00 0.00 75 1006.0
20260506091928 16 258 3.2 3.2 0.00 0.00 0.00 76 1005.0
20260506091429 16 282 1.6 1.6 0.00 0.00 0.00 75 1006.0
20260506090929 16 45 0.0 0.0 0.00 0.00 0.00 77 1006.0
20260506090427 16 32 0.0 1.6 0.00 0.00 0.00 77 1005.0
20260506085927 16 259 1.6 1.6 0.00 0.00 0.00 75 1005.0
20260506085426 16 2 1.6 1.6 0.00 0.00 0.00 76 1006.0
20260506084925 16 295 1.6 3.2 0.00 0.00 0.00 76 1006.0
20260506084428 15 290 6.4 8.0 0.00 0.00 0.00 76 1005.0
20260506083927 16 256 4.8 4.8 0.00 0.00 0.00 76 1005.0
20260506083427 16 285 1.6 3.2 0.00 0.00 0.00 77 1006.0
20260506082927 15 40 1.6 1.6 0.00 0.00 0.00 76 1006.0
20260506082428 15 276 1.6 1.6 0.00 0.00 0.00 77 1006.0
20260506081927 15 284 1.6 3.2 0.00 0.00 0.00 77 1005.0
20260506081425 15 278 1.6 1.6 0.00 0.00 0.00 77 1006.0
20260506080927 15 89 0.0 0.0 0.00 0.00 0.00 77 1006.0
20260506080428 15 240 1.6 1.6 0.00 0.00 0.00 76 1006.0
20260506073428 15 70 0.0 0.0 0.00 0.00 0.00 77 1006.0
20260506072927 15 229 1.6 1.6 0.00 0.00 0.00 79 1006.0
20260506072426 15 185 1.6 1.6 0.00 0.00 0.00 78 1006.0
20260506071928 15 35 0.0 0.0 0.00 0.00 0.00 78 1006.0
20260506071427 15 182 0.0 1.6 0.00 0.00 0.00 78 1006.0
20260506070927 15 31 0.0 0.0 0.00 0.00 0.00 78 1006.0
20260506070426 15 255 1.6 3.2 0.00 0.00 0.00 79 1006.0
20260506062431 13 57 0.0 0.0 0.00 0.00 0.00 87 1006.0
20260506061928 12 41 0.0 0.0 0.00 0.00 0.00 90 1006.0
20260506061425 12 321 0.0 1.6 0.00 0.00 0.00 92 1006.0
20260506060927 11 1 0.0 1.6 0.00 0.00 0.00 94 1006.0
20260506060428 11 346 0.0 0.0 0.00 0.00 0.00 96 1006.0
20260506050927 9 29 0.0 0.0 0.00 0.00 0.00 99 1006.0
20260506050425 9 46 0.0 0.0 0.00 0.00 0.00 99 1006.0
20260506044925 8 23 0.0 0.0 0.00 0.00 0.00 99 1006.0
20260506044426 8 26 0.0 0.0 0.00 0.00 0.00 99 1006.0
20260506043925 8 23 0.0 0.0 0.00 0.00 0.00 99 1006.0
20260506043426 8 23 0.0 0.0 0.00 0.00 0.00 99 1006.0
20260506042926 8 22 0.0 0.0 0.00 0.00 0.00 99 1006.0
20260506042427 8 22 0.0 0.0 0.00 0.00 0.00 99 1007.0
20260506041927 8 42 0.0 0.0 0.00 0.00 0.00 99 1006.0
20260506041426 8 27 0.0 0.0 0.00 0.00 0.00 99 1006.0
20260506040927 8 31 0.0 0.0 0.00 0.00 0.00 99 1007.0
20260506040425 8 22 0.0 0.0 0.00 0.00 0.00 99 1006.0
20260506035927 7 22 0.0 0.0 0.00 0.00 0.00 99 1006.0
20260506035427 7 22 0.0 0.0 0.00 0.00 0.00 99 1006.0
20260506034925 7 23 0.0 0.0 0.00 0.00 0.00 99 1006.0
20260506034426 8 23 0.0 0.0 0.00 0.00 0.00 99 1007.0
20260506033925 8 23 0.0 0.0 0.00 0.00 0.00 99 1006.0